Location: Balsareny
(41.8670°N, 1.8830°E)
Time: 07:56:29
(UTC+02:00)

X-37B - Pass Details

Date: 24 June 2021
Orbit: 383 x 392 km, 45.0° (Epoch: 01 July)

Event Time Altitude Azimuth Distance (km) Brightness Sun altitude
Rises 23:06:01 0° 249° (WSW) 2,249 4.7 -13.9°
Reaches altitude 10° 23:08:05 10° 249° (WSW) 1,397 3.6 -14.2°
Maximum altitude 23:11:14 88° 164° (SSE) 386 0.5 -14.5°
Drops below altitude 10° 23:14:23 10° 71° (ENE) 1,401 3.2 -14.9°
Enters shadow 23:15:02 - 71° (ENE) 1,670 3.6 -15.0°
